Time,TemperatureF,DewpointF,PressureIn,WindDirection,WindDirectionDegrees,WindSpeedMPH,WindSpeedGustMPH,Humidity,HourlyPrecipIn,Conditions,Clouds,dailyrainin,SoftwareType,DateUTC
2013-07-12 00:01:00,80.7,76.8,29.93,SE,144,6.9,6.9,88,0.00,CLR,,0.00,WeatherDisplay:10.37,2013-07-12 05:01:00,
2013-07-12 00:06:00,80.7,76.8,29.92,SSW,193,3.5,3.5,88,0.00,CLR,,0.00,WeatherDisplay:10.37,2013-07-12 05:06:00,
2013-07-12 00:11:00,80.6,76.7,29.93,SSE,155,5.8,5.8,88,0.00,CLR,,0.00,WeatherDisplay:10.37,2013-07-12 05:11:00,
2013-07-12 00:16:00,80.6,76.7,29.93,SE,124,6.9,6.9,88,0.00,CLR,,0.00,WeatherDisplay:10.37,2013-07-12 05:16:00,
2013-07-12 00:21:00,80.6,76.7,29.93,SSE,166,9.2,9.2,88,0.00,CLR,,0.00,WeatherDisplay:10.37,2013-07-12 05:21:00,
2013-07-12 00:26:00,80.7,76.8,29.93,SSE,158,5.8,5.8,88,0.00,CLR,,0.00,WeatherDisplay:10.37,2013-07-12 05:26:00,
2013-07-12 00:31:00,80.7,76.8,29.92,SSE,155,5.8,5.8,88,0.00,CLR,,0.00,WeatherDisplay:10.37,2013-07-12 05:31:00,
2013-07-12 00:36:00,80.7,76.8,29.92,SE,134,7.4,7.4,88,0.00,CLR,,0.00,WeatherDisplay:10.37,2013-07-12 05:36:00,
2013-07-12 00:41:00,80.7,76.8,29.93,SE,143,6.3,6.3,88,0.00,CLR,,0.00,WeatherDisplay:10.37,2013-07-12 05:41:00,
2013-07-12 00:46:00,80.8,76.6,29.93,SSE,152,9.2,9.2,87,0.00,CLR,,0.00,WeatherDisplay:10.37,2013-07-12 05:46:00,
2013-07-12 00:51:00,80.9,76.7,29.93,SSE,152,6.9,6.9,87,0.00,CLR,,0.00,WeatherDisplay:10.37,2013-07-12 05:51:00,
2013-07-12 00:56:00,80.8,76.6,29.92,SE,145,10.4,10.4,87,0.00,CLR,,0.00,WeatherDisplay:10.37,2013-07-12 05:56:00,
2013-07-12 01:01:00,80.9,76.7,29.92,SE,131,11.5,11.5,87,0.00,CLR,,0.00,WeatherDisplay:10.37,2013-07-12 06:01:00,
2013-07-12 01:06:00,80.9,76.7,29.92,SE,139,10.4,10.4,87,0.00,CLR,,0.00,WeatherDisplay:10.37,2013-07-12 06:06:00,
2013-07-12 01:11:00,81.0,76.8,29.92,South,186,5.8,5.8,87,0.00,CLR,,0.00,WeatherDisplay:10.37,2013-07-12 06:11:00,
2013-07-12 01:16:00,81.0,76.8,29.92,South,182,11.5,11.5,87,0.00,CLR,,0.00,WeatherDisplay:10.37,2013-07-12 06:16:00,
2013-07-12 01:21:00,81.0,76.8,29.92,South,173,4.6,4.6,87,0.00,CLR,,0.00,WeatherDisplay:10.37,2013-07-12 06:21:00,
2013-07-12 01:26:00,80.9,76.7,29.92,SE,141,12.7,12.7,87,0.00,CLR,,0.00,WeatherDisplay:10.37,2013-07-12 06:26:00,
2013-07-12 01:31:00,80.8,76.2,29.91,SE,143,10.4,10.4,86,0.00,CLR,,0.00,WeatherDisplay:10.37,2013-07-12 06:31:00,
2013-07-12 01:36:00,80.9,76.3,29.91,SE,143,9.2,9.2,86,0.00,CLR,,0.00,WeatherDisplay:10.37,2013-07-12 06:36:00,
2013-07-12 01:41:00,80.9,76.3,29.91,SSE,155,9.2,9.2,86,0.00,CLR,,0.00,WeatherDisplay:10.37,2013-07-12 06:41:00,
2013-07-12 01:46:00,80.9,76.7,29.91,South,169,9.2,9.2,87,0.00,CLR,,0.00,WeatherDisplay:10.37,2013-07-12 06:46:00,
2013-07-12 01:51:00,80.8,76.2,29.91,South,169,10.4,10.4,86,0.00,CLR,,0.00,WeatherDisplay:10.37,2013-07-12 06:51:00,
2013-07-12 01:56:00,80.8,76.2,29.91,SE,137,5.8,5.8,86,0.00,CLR,,0.00,WeatherDisplay:10.37,2013-07-12 06:56:00,
2013-07-12 02:01:00,80.7,76.1,29.91,South,172,6.9,6.9,86,0.00,CLR,,0.00,WeatherDisplay:10.37,2013-07-12 07:01:00,
2013-07-12 02:06:00,80.7,76.1,29.90,SSE,150,6.9,6.9,86,0.00,CLR,,0.00,WeatherDisplay:10.37,2013-07-12 07:06:00,
2013-07-12 02:11:00,80.7,76.1,29.90,South,169,10.4,10.4,86,0.00,CLR,,0.00,WeatherDisplay:10.37,2013-07-12 07:11:00,
2013-07-12 02:16:00,80.6,76.0,29.90,South,176,5.8,5.8,86,0.00,CLR,,0.00,WeatherDisplay:10.37,2013-07-12 07:16:00,
2013-07-12 02:21:00,80.6,76.0,29.90,SSE,149,9.2,9.2,86,0.00,CLR,,0.00,WeatherDisplay:10.37,2013-07-12 07:21:00,
2013-07-12 02:26:00,80.7,76.1,29.90,SSE,150,5.8,5.8,86,0.00,CLR,,0.00,WeatherDisplay:10.37,2013-07-12 07:26:00,
2013-07-12 02:31:00,80.7,76.1,29.89,SSE,162,5.8,5.8,86,0.00,CLR,,0.00,WeatherDisplay:10.37,2013-07-12 07:31:00,
2013-07-12 02:36:00,80.6,76.0,29.89,SSE,155,11.5,11.5,86,0.00,CLR,,0.00,WeatherDisplay:10.37,2013-07-12 07:36:00,
2013-07-12 02:41:00,80.6,76.0,29.89,SSE,154,11.5,11.5,86,0.00,CLR,,0.00,WeatherDisplay:10.37,2013-07-12 07:41:00,
2013-07-12 02:46:00,80.5,75.9,29.89,SSE,162,12.7,12.7,86,0.00,CLR,,0.00,WeatherDisplay:10.37,2013-07-12 07:46:00,
2013-07-12 02:51:00,80.5,75.9,29.89,SSE,159,10.4,10.4,86,0.00,CLR,,0.00,WeatherDisplay:10.37,2013-07-12 07:51:00,
2013-07-12 02:56:00,80.5,75.6,29.89,SE,146,8.1,8.1,85,0.00,CLR,,0.00,WeatherDisplay:10.37,2013-07-12 07:56:00,
2013-07-12 03:01:00,80.5,75.9,29.89,SSE,153,9.2,9.2,86,0.00,CLR,,0.00,WeatherDisplay:10.37,2013-07-12 08:01:00,
2013-07-12 03:06:00,80.4,75.8,29.88,SSW,197,4.6,4.6,86,0.00,CLR,,0.00,WeatherDisplay:10.37,2013-07-12 08:06:00,
2013-07-12 03:11:00,80.3,75.7,29.88,South,175,5.8,5.8,86,0.00,CLR,,0.00,WeatherDisplay:10.37,2013-07-12 08:11:00,
2013-07-12 03:16:00,80.3,75.7,29.88,South,186,4.6,4.6,86,0.00,CLR,,0.00,WeatherDisplay:10.37,2013-07-12 08:16:00,
2013-07-12 03:21:00,80.2,75.6,29.88,South,169,5.8,5.8,86,0.00,CLR,,0.00,WeatherDisplay:10.37,2013-07-12 08:21:00,
2013-07-12 03:26:00,80.2,76.0,29.88,South,174,4.6,4.6,87,0.00,CLR,,0.00,WeatherDisplay:10.37,2013-07-12 08:26:00,
2013-07-12 03:31:00,80.2,76.0,29.88,South,188,6.9,6.9,87,0.00,CLR,,0.00,WeatherDisplay:10.37,2013-07-12 08:31:00,
2013-07-12 03:36:00,80.3,75.7,29.88,SSE,155,10.4,10.4,86,0.00,CLR,,0.00,WeatherDisplay:10.37,2013-07-12 08:36:00,
2013-07-12 03:41:00,80.3,75.7,29.88,South,178,12.7,12.7,86,0.00,CLR,,0.00,WeatherDisplay:10.37,2013-07-12 08:41:00,
2013-07-12 03:46:00,80.2,75.6,29.88,South,176,5.3,5.3,86,0.00,CLR,,0.00,WeatherDisplay:10.37,2013-07-12 08:46:00,
2013-07-12 03:51:00,80.1,75.2,29.88,South,190,5.8,5.8,85,0.00,CLR,,0.00,WeatherDisplay:10.37,2013-07-12 08:51:00,
2013-07-12 03:56:00,80.1,75.5,29.88,SW,227,10.4,10.4,86,0.00,CLR,,0.00,WeatherDisplay:10.37,2013-07-12 08:56:00,
2013-07-12 04:01:00,80.1,75.5,29.88,South,189,6.9,6.9,86,0.00,CLR,,0.00,WeatherDisplay:10.37,2013-07-12 09:01:00,
2013-07-12 04:06:00,80.1,75.5,29.88,SE,145,5.8,5.8,86,0.00,CLR,,0.00,WeatherDisplay:10.37,2013-07-12 09:06:00,
2013-07-12 04:11:00,80.0,75.4,29.88,SSE,168,9.2,9.2,86,0.00,CLR,,0.00,WeatherDisplay:10.37,2013-07-12 09:11:00,
2013-07-12 04:16:00,80.1,75.5,29.88,SW,217,11.5,11.5,86,0.00,CLR,,0.00,WeatherDisplay:10.37,2013-07-12 09:16:00,
2013-07-12 04:21:00,80.0,75.8,29.88,SSW,207,3.5,3.5,87,0.00,CLR,,0.00,WeatherDisplay:10.37,2013-07-12 09:21:00,
2013-07-12 04:26:00,80.0,75.8,29.88,South,190,2.3,2.3,87,0.00,CLR,,0.00,WeatherDisplay:10.37,2013-07-12 09:26:00,
2013-07-12 04:31:00,80.0,75.8,29.88,South,186,3.5,3.5,87,0.00,CLR,,0.00,WeatherDisplay:10.37,2013-07-12 09:31:00,
2013-07-12 04:36:00,80.0,75.8,29.88,SW,214,5.8,5.8,87,0.00,CLR,,0.00,WeatherDisplay:10.37,2013-07-12 09:36:00,
2013-07-12 04:41:00,79.9,75.7,29.88,South,184,2.3,2.3,87,0.00,CLR,,0.00,WeatherDisplay:10.37,2013-07-12 09:41:00,
2013-07-12 04:46:00,79.9,76.0,29.88,South,189,4.6,4.6,88,0.00,CLR,,0.00,WeatherDisplay:10.37,2013-07-12 09:46:00,
2013-07-12 04:51:00,79.8,75.9,29.88,SSW,193,3.5,3.5,88,0.00,CLR,,0.00,WeatherDisplay:10.37,2013-07-12 09:51:00,
2013-07-12 04:56:00,79.8,75.9,29.88,SSW,204,3.5,3.5,88,0.00,CLR,,0.00,WeatherDisplay:10.37,2013-07-12 09:56:00,
2013-07-12 05:01:00,79.7,75.8,29.88,SSW,194,4.6,4.6,88,0.00,CLR,,0.00,WeatherDisplay:10.37,2013-07-12 10:01:00,
2013-07-12 05:06:00,79.6,75.7,29.88,SSW,203,3.5,3.5,88,0.00,CLR,,0.00,WeatherDisplay:10.37,2013-07-12 10:06:00,
2013-07-12 05:11:00,79.5,75.6,29.88,SSW,193,5.8,5.8,88,0.00,CLR,,0.00,WeatherDisplay:10.37,2013-07-12 10:11:00,
2013-07-12 05:16:00,79.5,75.6,29.88,SSW,193,2.3,2.3,88,0.00,CLR,,0.00,WeatherDisplay:10.37,2013-07-12 10:16:00,
2013-07-12 05:21:00,79.5,76.0,29.88,SSE,164,3.5,3.5,89,0.00,CLR,,0.00,WeatherDisplay:10.37,2013-07-12 10:21:00,
2013-07-12 05:26:00,79.4,75.9,29.88,South,188,4.6,4.6,89,0.00,CLR,,0.00,WeatherDisplay:10.37,2013-07-12 10:26:00,
2013-07-12 05:31:00,79.4,75.9,29.88,SSW,205,5.8,5.8,89,0.00,CLR,,0.00,WeatherDisplay:10.37,2013-07-12 10:31:00,
2013-07-12 05:36:00,79.4,75.5,29.88,SSW,206,5.8,5.8,88,0.00,CLR,,0.00,WeatherDisplay:10.37,2013-07-12 10:36:00,
2013-07-12 05:41:00,79.5,75.6,29.88,SSW,195,5.8,5.8,88,0.00,CLR,,0.00,WeatherDisplay:10.37,2013-07-12 10:41:00,
2013-07-12 05:46:00,79.6,75.7,29.88,SSW,192,4.6,4.6,88,0.00,CLR,,0.00,WeatherDisplay:10.37,2013-07-12 10:46:00,
2013-07-12 05:51:00,79.6,75.4,29.88,SSW,204,3.5,3.5,87,0.00,CLR,,0.00,WeatherDisplay:10.37,2013-07-12 10:51:00,
2013-07-12 05:56:00,79.6,75.7,29.88,South,191,2.3,2.3,88,0.00,CLR,,0.00,WeatherDisplay:10.37,2013-07-12 10:56:00,
2013-07-12 06:01:00,79.5,75.6,29.89,SW,214,3.5,3.5,88,0.00,CLR,,0.00,WeatherDisplay:10.37,2013-07-12 11:01:00,
2013-07-12 06:06:00,79.5,75.6,29.89,SW,221,1.1,1.1,88,0.00,CLR,,0.00,WeatherDisplay:10.37,2013-07-12 11:06:00,
2013-07-12 06:11:00,79.5,75.6,29.90,SW,221,0.0,0.0,88,0.00,CLR,,0.00,WeatherDisplay:10.37,2013-07-12 11:11:00,
2013-07-12 06:16:00,79.4,75.5,29.90,SW,221,0.0,0.0,88,0.00,CLR,,0.00,WeatherDisplay:10.37,2013-07-12 11:16:00,
2013-07-12 06:21:00,79.3,75.4,29.90,SW,221,0.0,0.6,88,0.00,CLR,,0.00,WeatherDisplay:10.37,2013-07-12 11:21:00,
2013-07-12 06:26:00,79.2,75.7,29.90,SW,221,1.1,1.1,89,0.00,CLR,,0.00,WeatherDisplay:10.37,2013-07-12 11:26:00,
2013-07-12 06:31:00,79.2,75.7,29.90,SW,221,0.0,0.0,89,0.00,CLR,,0.00,WeatherDisplay:10.37,2013-07-12 11:31:00,
2013-07-12 06:36:00,79.0,75.5,29.90,SW,221,1.1,0.0,89,0.00,CLR,,0.00,WeatherDisplay:10.37,2013-07-12 11:36:00,
2013-07-12 06:41:00,79.0,75.5,29.90,SSW,200,2.3,2.3,89,0.00,CLR,,0.00,WeatherDisplay:10.37,2013-07-12 11:41:00,
2013-07-12 06:46:00,79.1,75.6,29.90,SSW,205,4.6,4.6,89,0.00,CLR,,0.00,WeatherDisplay:10.37,2013-07-12 11:46:00,
2013-07-12 06:51:00,79.1,75.6,29.91,SSW,205,1.1,1.1,89,0.00,CLR,,0.00,WeatherDisplay:10.37,2013-07-12 11:51:00,
2013-07-12 06:56:00,79.1,75.6,29.91,SSW,205,2.3,2.3,89,0.00,CLR,,0.00,WeatherDisplay:10.37,2013-07-12 11:56:00,
2013-07-12 07:01:00,79.2,76.0,29.91,SSW,205,1.1,1.1,90,0.00,CLR,,0.00,WeatherDisplay:10.37,2013-07-12 12:01:00,
2013-07-12 07:06:00,79.2,75.7,29.91,SSW,205,0.0,0.4,89,0.00,CLR,,0.00,WeatherDisplay:10.37,2013-07-12 12:06:00,
2013-07-12 07:11:00,79.1,75.9,29.91,SSW,205,1.1,0.0,90,0.00,CLR,,0.00,WeatherDisplay:10.37,2013-07-12 12:11:00,
2013-07-12 07:16:00,79.1,75.9,29.91,SSW,205,1.1,1.1,90,0.00,CLR,,0.00,WeatherDisplay:10.37,2013-07-12 12:16:00,
2013-07-12 07:21:00,79.2,76.0,29.91,SSW,205,1.1,1.1,90,0.00,CLR,,0.00,WeatherDisplay:10.37,2013-07-12 12:21:00,
2013-07-12 07:26:00,79.2,76.3,29.91,SSW,205,0.0,0.0,91,0.00,CLR,,0.00,WeatherDisplay:10.37,2013-07-12 12:26:00,
2013-07-12 07:31:00,79.3,76.4,29.91,SSW,205,1.1,1.1,91,0.00,CLR,,0.00,WeatherDisplay:10.37,2013-07-12 12:31:00,
2013-07-12 07:36:00,79.6,76.7,29.91,SSW,205,2.3,2.3,91,0.00,CLR,,0.00,WeatherDisplay:10.37,2013-07-12 12:36:00,
2013-07-12 07:41:00,79.9,77.0,29.91,SSW,205,1.1,1.1,91,0.00,CLR,,0.00,WeatherDisplay:10.37,2013-07-12 12:41:00,
2013-07-12 07:46:00,80.2,77.0,29.91,SSW,204,2.3,2.3,90,0.00,CLR,,0.00,WeatherDisplay:10.37,2013-07-12 12:46:00,
2013-07-12 07:51:00,80.6,77.4,29.91,SW,221,2.1,2.1,90,0.00,CLR,,0.00,WeatherDisplay:10.37,2013-07-12 12:51:00,
2013-07-12 07:56:00,80.9,77.4,29.91,SW,221,3.5,3.5,89,0.00,CLR,,0.00,WeatherDisplay:10.37,2013-07-12 12:56:00,
2013-07-12 08:01:00,81.2,77.3,29.92,SSW,204,3.5,3.5,88,0.00,CLR,,0.00,WeatherDisplay:10.37,2013-07-12 13:01:00,
2013-07-12 08:06:00,81.4,77.5,29.92,SSW,204,3.5,3.5,88,0.00,CLR,,0.00,WeatherDisplay:10.37,2013-07-12 13:06:00,
2013-07-12 08:11:00,81.7,77.5,29.92,SSW,207,2.3,2.3,87,0.00,CLR,,0.00,WeatherDisplay:10.37,2013-07-12 13:11:00,
2013-07-12 08:16:00,82.0,77.7,29.92,SSW,207,3.2,3.2,87,0.00,CLR,,0.00,WeatherDisplay:10.37,2013-07-12 13:16:00,
2013-07-12 08:21:00,82.2,77.6,29.92,WSW,243,3.5,3.5,86,0.00,CLR,,0.00,WeatherDisplay:10.37,2013-07-12 13:21:00,
2013-07-12 08:26:00,82.1,77.5,29.92,SW,224,3.5,3.5,86,0.00,CLR,,0.00,WeatherDisplay:10.37,2013-07-12 13:26:00,
2013-07-12 08:31:00,82.0,77.4,29.92,South,179,4.6,4.6,86,0.00,CLR,,0.00,WeatherDisplay:10.37,2013-07-12 13:31:00,
2013-07-12 08:36:00,81.9,77.3,29.93,SSW,194,4.6,4.6,86,0.00,CLR,,0.00,WeatherDisplay:10.37,2013-07-12 13:36:00,
2013-07-12 08:41:00,81.9,77.3,29.93,WSW,237,1.1,1.1,86,0.00,CLR,,0.00,WeatherDisplay:10.37,2013-07-12 13:41:00,
2013-07-12 08:46:00,81.9,77.3,29.93,SW,234,1.1,1.1,86,0.00,CLR,,0.00,WeatherDisplay:10.37,2013-07-12 13:46:00,
2013-07-12 08:51:00,82.1,77.5,29.93,WSW,240,4.6,4.6,86,0.00,CLR,,0.00,WeatherDisplay:10.37,2013-07-12 13:51:00,
2013-07-12 08:56:00,82.4,77.8,29.93,South,191,4.6,4.6,86,0.00,CLR,,0.00,WeatherDisplay:10.37,2013-07-12 13:56:00,
2013-07-12 09:01:00,82.6,77.6,29.93,SSW,193,1.1,1.1,85,0.00,CLR,,0.00,WeatherDisplay:10.37,2013-07-12 14:01:00,
2013-07-12 09:06:00,82.9,77.9,29.93,SE,134,5.8,5.8,85,0.00,CLR,,0.00,WeatherDisplay:10.37,2013-07-12 14:06:00,
2013-07-12 09:11:00,83.4,78.1,29.93,SSW,198,4.6,4.6,84,0.00,CLR,,0.00,WeatherDisplay:10.37,2013-07-12 14:11:00,
2013-07-12 09:16:00,84.1,78.0,29.93,South,191,2.3,2.3,82,0.00,CLR,,0.00,WeatherDisplay:10.37,2013-07-12 14:16:00,
2013-07-12 09:21:00,84.2,77.7,29.93,South,191,5.8,5.8,81,0.00,CLR,,0.00,WeatherDisplay:10.37,2013-07-12 14:21:00,
2013-07-12 09:26:00,84.0,77.5,29.93,South,191,4.2,4.2,81,0.00,CLR,,0.00,WeatherDisplay:10.37,2013-07-12 14:26:00,
2013-07-12 09:31:00,83.7,76.9,29.93,SW,219,5.8,5.8,80,0.00,CLR,,0.00,WeatherDisplay:10.37,2013-07-12 14:31:00,
2013-07-12 09:36:00,83.6,77.1,29.93,WSW,241,3.5,3.5,81,0.00,CLR,,0.00,WeatherDisplay:10.37,2013-07-12 14:36:00,
2013-07-12 09:41:00,84.2,77.4,29.93,WSW,257,5.8,5.8,80,0.00,CLR,,0.00,WeatherDisplay:10.37,2013-07-12 14:41:00,
2013-07-12 09:46:00,84.7,76.3,29.93,SSW,211,9.2,9.2,76,0.00,CLR,,0.00,WeatherDisplay:10.37,2013-07-12 14:46:00,
2013-07-12 09:51:00,85.1,76.3,29.93,SW,234,4.6,4.6,75,0.00,CLR,,0.00,WeatherDisplay:10.37,2013-07-12 14:51:00,
2013-07-12 09:56:00,85.4,77.0,29.93,WSW,242,4.6,4.6,76,0.00,CLR,,0.00,WeatherDisplay:10.37,2013-07-12 14:56:00,
2013-07-12 10:01:00,85.5,76.7,29.93,SSW,197,6.9,6.9,75,0.00,CLR,,0.00,WeatherDisplay:10.37,2013-07-12 15:01:00,
2013-07-12 10:06:00,85.6,75.5,29.93,SSE,153,5.8,5.8,72,0.00,CLR,,0.00,WeatherDisplay:10.37,2013-07-12 15:06:00,
2013-07-12 10:11:00,86.1,75.6,29.93,South,183,5.8,5.8,71,0.00,CLR,,0.00,WeatherDisplay:10.37,2013-07-12 15:11:00,
2013-07-12 10:16:00,86.4,76.3,29.93,SW,236,3.2,3.2,72,0.00,CLR,,0.00,WeatherDisplay:10.37,2013-07-12 15:16:00,
2013-07-12 10:21:00,86.9,76.4,29.93,South,191,4.6,4.6,71,0.00,CLR,,0.00,WeatherDisplay:10.37,2013-07-12 15:21:00,
2013-07-12 10:26:00,87.2,76.2,29.93,SSW,212,5.8,5.8,70,0.00,CLR,,0.00,WeatherDisplay:10.37,2013-07-12 15:26:00,
2013-07-12 10:31:00,87.0,76.0,29.93,SSW,207,8.1,8.1,70,0.00,CLR,,0.00,WeatherDisplay:10.37,2013-07-12 15:31:00,
2013-07-12 10:36:00,86.8,75.4,29.93,SSW,203,5.8,5.8,69,0.00,CLR,,0.00,WeatherDisplay:10.37,2013-07-12 15:36:00,
2013-07-12 10:41:00,87.6,76.2,29.93,SSW,200,4.6,4.6,69,0.00,CLR,,0.00,WeatherDisplay:10.37,2013-07-12 15:41:00,
2013-07-12 10:46:00,88.3,75.9,29.93,ESE,105,5.8,5.8,67,0.00,CLR,,0.00,WeatherDisplay:10.37,2013-07-12 15:46:00,
2013-07-12 10:51:00,88.0,76.1,29.93,SSE,159,4.6,4.6,68,0.00,CLR,,0.00,WeatherDisplay:10.37,2013-07-12 15:51:00,
2013-07-12 10:56:00,88.4,76.5,29.93,SSE,153,6.9,6.9,68,0.00,CLR,,0.00,WeatherDisplay:10.37,2013-07-12 15:56:00,
2013-07-12 11:01:00,88.7,76.3,29.93,SSE,160,6.9,6.9,67,0.00,CLR,,0.00,WeatherDisplay:10.37,2013-07-12 16:01:00,
2013-07-12 11:06:00,88.5,76.1,29.93,ESE,109,10.4,10.4,67,0.00,CLR,,0.00,WeatherDisplay:10.37,2013-07-12 16:06:00,
2013-07-12 11:11:00,88.6,75.3,29.93,ESE,110,8.1,8.1,65,0.00,CLR,,0.00,WeatherDisplay:10.37,2013-07-12 16:11:00,
2013-07-12 11:16:00,89.1,76.3,29.93,SSW,204,6.9,6.9,66,0.00,CLR,,0.00,WeatherDisplay:10.37,2013-07-12 16:16:00,
2013-07-12 11:21:00,89.3,76.9,29.93,SE,134,9.4,9.4,67,0.00,CLR,,0.00,WeatherDisplay:10.37,2013-07-12 16:21:00,
2013-07-12 11:26:00,88.7,76.8,29.93,South,189,10.4,10.4,68,0.00,CLR,,0.00,WeatherDisplay:10.37,2013-07-12 16:26:00,
2013-07-12 11:31:00,88.2,76.7,29.93,SE,146,5.8,5.8,69,0.00,CLR,,0.00,WeatherDisplay:10.37,2013-07-12 16:31:00,
2013-07-12 11:36:00,88.0,77.0,29.93,SSE,162,5.8,5.8,70,0.00,CLR,,0.00,WeatherDisplay:10.37,2013-07-12 16:36:00,
2013-07-12 11:41:00,88.4,76.5,29.93,SE,129,9.2,9.2,68,0.00,CLR,,0.00,WeatherDisplay:10.37,2013-07-12 16:41:00,
2013-07-12 11:46:00,88.7,75.9,29.93,SE,137,6.9,6.9,66,0.00,CLR,,0.00,WeatherDisplay:10.37,2013-07-12 16:46:00,
2013-07-12 11:51:00,88.7,76.3,29.92,ESE,112,4.6,4.6,67,0.00,CLR,,0.00,WeatherDisplay:10.37,2013-07-12 16:51:00,
2013-07-12 11:56:00,89.0,76.6,29.92,SE,138,5.8,5.8,67,0.00,CLR,,0.00,WeatherDisplay:10.37,2013-07-12 16:56:00,
2013-07-12 12:01:00,88.7,76.3,29.92,ESE,122,5.8,5.8,67,0.00,CLR,,0.00,WeatherDisplay:10.37,2013-07-12 17:01:00,
2013-07-12 12:07:00,88.6,75.3,29.92,East,97,6.9,6.9,65,0.00,CLR,,0.00,WeatherDisplay:10.37,2013-07-12 17:07:00,
2013-07-12 12:12:00,88.8,76.4,29.92,SE,132,10.4,10.4,67,0.00,CLR,,0.00,WeatherDisplay:10.37,2013-07-12 17:12:00,
2013-07-12 12:17:00,88.9,75.6,29.92,SE,142,4.6,4.6,65,0.00,CLR,,0.00,WeatherDisplay:10.37,2013-07-12 17:17:00,
2013-07-12 12:22:00,89.4,76.5,29.92,SW,214,9.2,9.2,66,0.00,CLR,,0.00,WeatherDisplay:10.37,2013-07-12 17:22:00,
2013-07-12 12:27:00,89.6,76.3,29.92,SSE,148,5.8,5.8,65,0.00,CLR,,0.00,WeatherDisplay:10.37,2013-07-12 17:27:00,
2013-07-12 12:34:00,89.6,75.8,29.92,SE,139,6.9,6.9,64,0.00,CLR,,0.00,WeatherDisplay:10.37,2013-07-12 17:34:00,
2013-07-12 12:39:00,89.3,76.0,29.92,ESE,120,5.8,5.8,65,0.00,CLR,,0.00,WeatherDisplay:10.37,2013-07-12 17:39:00,
2013-07-12 12:44:00,89.0,76.2,29.92,SE,143,11.5,11.5,66,0.00,CLR,,0.00,WeatherDisplay:10.37,2013-07-12 17:44:00,
2013-07-12 12:49:00,88.9,76.5,29.92,SSE,154,9.4,9.4,67,0.00,CLR,,0.00,WeatherDisplay:10.37,2013-07-12 17:49:00,
2013-07-12 12:55:00,88.6,76.7,29.92,ENE,71,6.9,6.9,68,0.00,CLR,,0.00,WeatherDisplay:10.37,2013-07-12 17:55:00,
2013-07-12 13:00:00,88.7,75.9,29.92,East,91,6.9,6.9,66,0.00,CLR,,0.00,WeatherDisplay:10.37,2013-07-12 18:00:00,
2013-07-12 13:06:00,88.8,76.0,29.91,ESE,103,5.8,6.3,66,0.00,CLR,,0.00,WeatherDisplay:10.37,2013-07-12 18:06:00,
2013-07-12 13:11:00,88.5,75.7,29.92,SE,146,11.5,11.5,66,0.00,CLR,,0.00,WeatherDisplay:10.37,2013-07-12 18:11:00,
2013-07-12 13:16:00,88.7,74.5,29.92,SSE,155,11.5,11.5,63,0.00,CLR,,0.00,WeatherDisplay:10.37,2013-07-12 18:16:00,
2013-07-12 13:21:00,88.6,75.8,29.92,East,81,10.4,10.4,66,0.00,CLR,,0.00,WeatherDisplay:10.37,2013-07-12 18:21:00,
2013-07-12 13:28:00,88.6,76.2,29.92,ESE,109,17.3,17.3,67,0.00,CLR,,0.00,WeatherDisplay:10.37,2013-07-12 18:28:00,
2013-07-12 13:33:00,88.8,76.4,29.92,ESE,120,15.0,15.0,67,0.00,CLR,,0.00,WeatherDisplay:10.37,2013-07-12 18:33:00,
2013-07-12 13:38:00,88.3,76.8,29.92,ESE,107,10.4,10.4,69,0.00,CLR,,0.00,WeatherDisplay:10.37,2013-07-12 18:38:00,
2013-07-12 13:43:00,88.0,76.5,29.92,SSE,158,12.7,12.7,69,0.00,CLR,,0.00,WeatherDisplay:10.37,2013-07-12 18:43:00,
2013-07-12 13:48:00,87.9,76.9,29.92,SE,141,11.5,11.5,70,0.00,CLR,,0.00,WeatherDisplay:10.37,2013-07-12 18:48:00,
2013-07-12 13:53:00,87.6,77.0,29.92,ESE,123,12.7,12.7,71,0.00,CLR,,0.00,WeatherDisplay:10.37,2013-07-12 18:53:00,
2013-07-12 13:58:00,87.6,76.6,29.92,ESE,120,8.1,8.1,70,0.00,CLR,,0.00,WeatherDisplay:10.37,2013-07-12 18:58:00,
2013-07-12 14:03:00,88.0,77.8,29.92,SE,141,9.2,9.2,72,0.00,CLR,,0.00,WeatherDisplay:10.37,2013-07-12 19:03:00,
2013-07-12 14:08:00,88.5,77.9,29.91,SSE,151,8.1,8.1,71,0.00,CLR,,0.00,WeatherDisplay:10.37,2013-07-12 19:08:00,
2013-07-12 14:13:00,88.6,76.7,29.91,SE,134,15.0,15.0,68,0.00,CLR,,0.00,WeatherDisplay:10.37,2013-07-12 19:13:00,
2013-07-12 14:19:00,88.3,77.3,29.91,SE,144,12.7,12.7,70,0.00,CLR,,0.00,WeatherDisplay:10.37,2013-07-12 19:19:00,
2013-07-12 14:24:00,88.2,77.2,29.92,SSE,160,10.4,10.4,70,0.00,CLR,,0.00,WeatherDisplay:10.37,2013-07-12 19:24:00,
2013-07-12 14:29:00,87.8,76.4,29.91,East,88,11.5,11.5,69,0.00,CLR,,0.00,WeatherDisplay:10.37,2013-07-12 19:29:00,
2013-07-12 14:34:00,87.5,76.5,29.91,ESE,113,10.4,10.4,70,0.00,CLR,,0.00,WeatherDisplay:10.37,2013-07-12 19:34:00,
2013-07-12 14:39:00,87.8,76.8,29.91,SE,130,8.1,8.1,70,0.00,CLR,,0.00,WeatherDisplay:10.37,2013-07-12 19:39:00,
2013-07-12 14:45:00,87.9,77.3,29.91,SSE,153,9.2,9.2,71,0.00,CLR,,0.00,WeatherDisplay:10.37,2013-07-12 19:45:00,
2013-07-12 14:51:00,87.6,77.0,29.91,SE,124,12.7,12.7,71,0.00,CLR,,0.00,WeatherDisplay:10.37,2013-07-12 19:51:00,
2013-07-12 14:56:00,87.8,77.2,29.91,SSE,148,13.8,13.8,71,0.00,CLR,,0.00,WeatherDisplay:10.37,2013-07-12 19:56:00,
2013-07-12 15:01:00,87.8,76.8,29.91,ESE,117,13.7,13.7,70,0.00,CLR,,0.00,WeatherDisplay:10.37,2013-07-12 20:01:00,
2013-07-12 15:06:00,88.0,77.4,29.91,SE,132,8.1,8.1,71,0.00,CLR,,0.00,WeatherDisplay:10.37,2013-07-12 20:06:00,
2013-07-12 15:11:00,87.8,76.8,29.91,ESE,102,15.0,15.0,70,0.00,CLR,,0.00,WeatherDisplay:10.37,2013-07-12 20:11:00,
2013-07-12 15:16:00,87.3,77.2,29.91,ESE,118,11.5,11.5,72,0.00,CLR,,0.00,WeatherDisplay:10.37,2013-07-12 20:16:00,
2013-07-12 15:21:00,87.4,77.7,29.91,East,95,12.7,12.7,73,0.00,CLR,,0.00,WeatherDisplay:10.37,2013-07-12 20:21:00,
2013-07-12 15:26:00,87.5,77.8,29.91,South,171,17.9,17.9,73,0.00,CLR,,0.00,WeatherDisplay:10.37,2013-07-12 20:26:00,
2013-07-12 15:31:00,87.6,77.9,29.90,SE,134,12.7,12.7,73,0.00,CLR,,0.00,WeatherDisplay:10.37,2013-07-12 20:31:00,
2013-07-12 15:37:00,87.4,76.8,29.91,SE,133,11.5,11.5,71,0.00,CLR,,0.00,WeatherDisplay:10.37,2013-07-12 20:37:00,
2013-07-12 15:42:00,87.3,77.2,29.91,SE,136,15.8,15.8,72,0.00,CLR,,0.00,WeatherDisplay:10.37,2013-07-12 20:42:00,
2013-07-12 15:47:00,87.4,76.8,29.91,ESE,120,12.7,12.7,71,0.00,CLR,,0.00,WeatherDisplay:10.37,2013-07-12 20:47:00,
2013-07-12 15:52:00,87.2,77.1,29.91,SSE,168,17.3,17.3,72,0.00,CLR,,0.00,WeatherDisplay:10.37,2013-07-12 20:52:00,
2013-07-12 15:57:00,87.2,77.5,29.91,East,101,11.5,11.5,73,0.00,CLR,,0.00,WeatherDisplay:10.37,2013-07-12 20:57:00,
2013-07-12 16:02:00,87.0,76.9,29.91,SE,136,12.7,12.7,72,0.00,CLR,,0.00,WeatherDisplay:10.37,2013-07-12 21:02:00,
2013-07-12 16:07:00,87.2,77.1,29.91,SE,135,15.0,15.0,72,0.00,CLR,,0.00,WeatherDisplay:10.37,2013-07-12 21:07:00,
2013-07-12 16:13:00,87.1,77.4,29.91,SE,136,13.8,13.8,73,0.00,CLR,,0.00,WeatherDisplay:10.37,2013-07-12 21:13:00,
2013-07-12 16:18:00,87.1,77.8,29.90,ESE,113,11.5,11.5,74,0.00,CLR,,0.00,WeatherDisplay:10.37,2013-07-12 21:18:00,
2013-07-12 16:23:00,87.5,78.2,29.90,SE,137,16.1,16.1,74,0.00,CLR,,0.00,WeatherDisplay:10.37,2013-07-12 21:23:00,
2013-07-12 16:28:00,87.2,77.5,29.90,East,94,12.7,12.7,73,0.00,CLR,,0.00,WeatherDisplay:10.37,2013-07-12 21:28:00,
2013-07-12 16:33:00,87.2,77.9,29.90,SE,135,10.4,10.4,74,0.00,CLR,,0.00,WeatherDisplay:10.37,2013-07-12 21:33:00,
2013-07-12 16:39:00,87.0,78.1,29.90,SE,146,12.7,12.7,75,0.00,CLR,,0.00,WeatherDisplay:10.37,2013-07-12 21:39:00,
2013-07-12 16:44:00,86.3,77.0,29.90,South,175,17.3,17.3,74,0.00,CLR,,0.00,WeatherDisplay:10.37,2013-07-12 21:44:00,
2013-07-12 16:49:00,86.2,77.7,29.90,SE,141,16.1,16.1,76,0.00,CLR,,0.00,WeatherDisplay:10.37,2013-07-12 21:49:00,
2013-07-12 16:54:00,86.1,77.6,29.90,SSE,162,18.4,18.4,76,0.00,CLR,,0.00,WeatherDisplay:10.37,2013-07-12 21:54:00,
2013-07-12 17:00:00,86.0,77.5,29.90,ESE,109,16.1,16.1,76,0.00,CLR,,0.00,WeatherDisplay:10.37,2013-07-12 22:00:00,
2013-07-12 17:05:00,85.9,77.1,29.90,SE,124,13.8,13.8,75,0.00,CLR,,0.00,WeatherDisplay:10.37,2013-07-12 22:05:00,
2013-07-12 17:10:00,86.1,77.6,29.90,SE,132,12.7,12.7,76,0.00,CLR,,0.00,WeatherDisplay:10.37,2013-07-12 22:10:00,
2013-07-12 17:15:00,86.3,77.4,29.90,SSE,159,17.3,17.3,75,0.00,CLR,,0.00,WeatherDisplay:10.37,2013-07-12 22:15:00,
2013-07-12 17:20:00,86.0,77.5,29.90,SSE,154,10.4,10.4,76,0.00,CLR,,0.00,WeatherDisplay:10.37,2013-07-12 22:20:00,
2013-07-12 17:25:00,86.2,77.3,29.89,ESE,107,16.1,16.1,75,0.00,CLR,,0.00,WeatherDisplay:10.37,2013-07-12 22:25:00,
2013-07-12 17:30:00,86.0,77.1,29.90,SE,144,16.1,16.1,75,0.00,CLR,,0.00,WeatherDisplay:10.37,2013-07-12 22:30:00,
2013-07-12 17:36:00,85.8,77.0,29.89,SE,129,10.4,10.4,75,0.00,CLR,,0.00,WeatherDisplay:10.37,2013-07-12 22:36:00,
2013-07-12 17:41:00,86.1,76.8,29.89,SE,132,13.8,13.8,74,0.00,CLR,,0.00,WeatherDisplay:10.37,2013-07-12 22:41:00,
2013-07-12 17:46:00,86.1,77.2,29.90,South,179,13.8,13.8,75,0.00,CLR,,0.00,WeatherDisplay:10.37,2013-07-12 22:46:00,
2013-07-12 17:52:00,85.9,77.1,29.89,SE,129,13.8,13.8,75,0.00,CLR,,0.00,WeatherDisplay:10.37,2013-07-12 22:52:00,
2013-07-12 17:57:00,85.6,76.8,29.89,SSE,152,10.4,10.4,75,0.00,CLR,,0.00,WeatherDisplay:10.37,2013-07-12 22:57:00,
2013-07-12 18:03:00,85.3,76.9,29.89,ESE,122,16.1,16.1,76,0.00,CLR,,0.00,WeatherDisplay:10.37,2013-07-12 23:03:00,
2013-07-12 18:09:00,85.2,76.8,29.89,ESE,111,9.4,11.0,76,0.00,CLR,,0.00,WeatherDisplay:10.37,2013-07-12 23:09:00,
2013-07-12 18:14:00,85.0,76.6,29.89,SSE,155,13.8,13.8,76,0.00,CLR,,0.00,WeatherDisplay:10.37,2013-07-12 23:14:00,
2013-07-12 18:19:00,85.0,76.6,29.88,ESE,118,13.8,13.8,76,0.00,CLR,,0.00,WeatherDisplay:10.37,2013-07-12 23:19:00,
2013-07-12 18:24:00,85.1,76.3,29.88,SE,137,16.1,16.1,75,0.00,CLR,,0.00,WeatherDisplay:10.37,2013-07-12 23:24:00,
2013-07-12 18:29:00,84.9,76.1,29.88,SSE,148,10.4,10.4,75,0.00,CLR,,0.00,WeatherDisplay:10.37,2013-07-12 23:29:00,
2013-07-12 18:34:00,84.7,76.3,29.88,ESE,122,12.7,12.7,76,0.00,CLR,,0.00,WeatherDisplay:10.37,2013-07-12 23:34:00,
2013-07-12 18:40:00,84.7,76.3,29.88,SE,125,15.0,15.0,76,0.00,CLR,,0.00,WeatherDisplay:10.37,2013-07-12 23:40:00,
2013-07-12 18:45:00,84.7,76.7,29.88,SE,142,11.5,11.5,77,0.00,CLR,,0.00,WeatherDisplay:10.37,2013-07-12 23:45:00,
2013-07-12 18:50:00,84.8,76.4,29.88,South,186,11.5,11.5,76,0.00,CLR,,0.00,WeatherDisplay:10.37,2013-07-12 23:50:00,
2013-07-12 18:55:00,84.5,76.1,29.88,SE,139,11.5,11.5,76,0.00,CLR,,0.00,WeatherDisplay:10.37,2013-07-12 23:55:00,
2013-07-12 19:01:00,84.4,76.0,29.88,ESE,105,12.6,12.6,76,0.00,CLR,,0.00,WeatherDisplay:10.37,2013-07-13 00:01:00,
2013-07-12 19:06:00,84.3,75.9,29.88,SE,128,13.8,13.8,76,0.00,CLR,,0.00,WeatherDisplay:10.37,2013-07-13 00:06:00,
2013-07-12 19:11:00,84.1,76.1,29.88,SE,129,6.9,6.9,77,0.00,CLR,,0.00,WeatherDisplay:10.37,2013-07-13 00:11:00,
2013-07-12 19:16:00,83.9,75.5,29.88,ESE,119,13.8,13.8,76,0.00,CLR,,0.00,WeatherDisplay:10.37,2013-07-13 00:16:00,
2013-07-12 19:21:00,83.7,75.7,29.88,SE,138,12.7,12.7,77,0.00,CLR,,0.00,WeatherDisplay:10.37,2013-07-13 00:21:00,
2013-07-12 19:26:00,83.6,75.6,29.88,SE,132,10.4,10.4,77,0.00,CLR,,0.00,WeatherDisplay:10.37,2013-07-13 00:26:00,
2013-07-12 19:32:00,83.4,75.0,29.88,SE,146,12.7,12.7,76,0.00,CLR,,0.00,WeatherDisplay:10.37,2013-07-13 00:32:00,
2013-07-12 19:37:00,83.3,74.9,29.88,SE,132,12.7,12.7,76,0.00,CLR,,0.00,WeatherDisplay:10.37,2013-07-13 00:37:00,
2013-07-12 19:42:00,83.2,74.4,29.88,ESE,105,5.8,5.8,75,0.00,CLR,,0.00,WeatherDisplay:10.37,2013-07-13 00:42:00,
2013-07-12 19:47:00,83.2,74.4,29.88,ESE,107,10.4,10.4,75,0.00,CLR,,0.00,WeatherDisplay:10.37,2013-07-13 00:47:00,
2013-07-12 19:52:00,83.1,74.4,29.88,ESE,115,5.8,5.8,75,0.00,CLR,,0.00,WeatherDisplay:10.37,2013-07-13 00:52:00,
2013-07-12 19:57:00,83.0,74.6,29.88,SE,131,5.8,5.8,76,0.00,CLR,,0.00,WeatherDisplay:10.37,2013-07-13 00:57:00,
2013-07-12 20:02:00,82.9,74.9,29.88,SE,133,10.4,10.4,77,0.00,CLR,,0.00,WeatherDisplay:10.37,2013-07-13 01:02:00,
2013-07-12 20:07:00,82.6,74.7,29.88,SE,146,9.2,9.2,77,0.00,CLR,,0.00,WeatherDisplay:10.37,2013-07-13 01:07:00,
2013-07-12 20:12:00,82.4,74.1,29.88,ESE,120,9.2,9.2,76,0.00,CLR,,0.00,WeatherDisplay:10.37,2013-07-13 01:12:00,
2013-07-12 20:17:00,82.3,74.4,29.88,SSE,148,9.2,9.2,77,0.00,CLR,,0.00,WeatherDisplay:10.37,2013-07-13 01:17:00,
2013-07-12 20:23:00,82.1,74.6,29.88,SE,131,4.6,4.6,78,0.00,CLR,,0.00,WeatherDisplay:10.37,2013-07-13 01:23:00,
2013-07-12 20:28:00,82.0,74.8,29.88,SE,139,7.4,7.4,79,0.00,CLR,,0.00,WeatherDisplay:10.37,2013-07-13 01:28:00,
2013-07-12 20:33:00,81.9,74.7,29.88,ESE,115,4.6,4.6,79,0.00,CLR,,0.00,WeatherDisplay:10.37,2013-07-13 01:33:00,
2013-07-12 20:38:00,81.7,74.5,29.88,SE,129,5.8,5.8,79,0.00,CLR,,0.00,WeatherDisplay:10.37,2013-07-13 01:38:00,
2013-07-12 20:44:00,81.6,74.5,29.88,SE,138,6.9,6.9,79,0.00,CLR,,0.00,WeatherDisplay:10.37,2013-07-13 01:44:00,
2013-07-12 20:49:00,81.4,74.3,29.88,South,178,4.6,4.6,79,0.00,CLR,,0.00,WeatherDisplay:10.37,2013-07-13 01:49:00,
2013-07-12 20:54:00,81.3,74.2,29.88,SSE,159,5.8,5.8,79,0.00,CLR,,0.00,WeatherDisplay:10.37,2013-07-13 01:54:00,
2013-07-12 20:59:00,81.3,74.5,29.88,SSE,147,4.6,4.6,80,0.00,CLR,,0.00,WeatherDisplay:10.37,2013-07-13 01:59:00,
2013-07-12 21:04:00,81.3,74.9,29.88,ESE,111,6.9,6.9,81,0.00,CLR,,0.00,WeatherDisplay:10.37,2013-07-13 02:04:00,
2013-07-12 21:09:00,81.3,75.3,29.87,SE,140,5.8,5.8,82,0.00,CLR,,0.00,WeatherDisplay:10.37,2013-07-13 02:09:00,
2013-07-12 21:14:00,81.2,75.2,29.87,SSE,152,6.9,6.9,82,0.00,CLR,,0.00,WeatherDisplay:10.37,2013-07-13 02:14:00,
2013-07-12 21:19:00,81.1,75.4,29.87,SE,139,3.5,3.5,83,0.00,CLR,,0.00,WeatherDisplay:10.37,2013-07-13 02:19:00,
2013-07-12 21:24:00,81.0,75.3,29.87,SE,130,5.8,5.8,83,0.00,CLR,,0.00,WeatherDisplay:10.37,2013-07-13 02:24:00,
2013-07-12 21:29:00,80.8,75.2,29.87,SE,136,5.8,5.8,83,0.00,CLR,,0.00,WeatherDisplay:10.37,2013-07-13 02:29:00,
2013-07-12 21:34:00,80.8,74.8,29.87,SSE,162,5.8,5.8,82,0.00,CLR,,0.00,WeatherDisplay:10.37,2013-07-13 02:34:00,
2013-07-12 21:40:00,80.8,74.8,29.87,SSE,153,2.3,2.3,82,0.00,CLR,,0.00,WeatherDisplay:10.37,2013-07-13 02:40:00,
2013-07-12 21:45:00,80.7,74.7,29.87,SE,135,2.3,2.3,82,0.00,CLR,,0.00,WeatherDisplay:10.37,2013-07-13 02:45:00,
2013-07-12 21:50:00,80.7,74.7,29.87,ESE,122,4.6,4.6,82,0.00,CLR,,0.00,WeatherDisplay:10.37,2013-07-13 02:50:00,
2013-07-12 21:56:00,80.7,75.1,29.88,SE,139,3.5,3.5,83,0.00,CLR,,0.00,WeatherDisplay:10.37,2013-07-13 02:56:00,
2013-07-12 22:01:00,80.6,75.3,29.87,SE,144,4.6,4.6,84,0.00,CLR,,0.00,WeatherDisplay:10.37,2013-07-13 03:01:00,
2013-07-12 22:07:00,80.6,75.7,29.87,SE,128,4.6,4.6,85,0.00,CLR,,0.00,WeatherDisplay:10.37,2013-07-13 03:07:00,
2013-07-12 22:12:00,80.6,75.7,29.87,SSE,151,4.6,4.6,85,0.00,CLR,,0.00,WeatherDisplay:10.37,2013-07-13 03:12:00,
2013-07-12 22:17:00,80.7,76.1,29.87,SSE,165,3.5,3.5,86,0.00,CLR,,0.00,WeatherDisplay:10.37,2013-07-13 03:17:00,
2013-07-12 22:23:00,80.6,76.0,29.87,ESE,122,5.8,5.8,86,0.00,CLR,,0.00,WeatherDisplay:10.37,2013-07-13 03:23:00,
2013-07-12 22:29:00,80.6,76.0,29.88,SE,146,5.8,5.8,86,0.00,CLR,,0.00,WeatherDisplay:10.37,2013-07-13 03:29:00,
2013-07-12 22:34:00,80.6,76.4,29.88,SSE,166,5.8,5.8,87,0.00,CLR,,0.00,WeatherDisplay:10.37,2013-07-13 03:34:00,
2013-07-12 22:39:00,80.5,75.9,29.88,SSE,150,5.8,5.8,86,0.00,CLR,,0.00,WeatherDisplay:10.37,2013-07-13 03:39:00,
2013-07-12 22:44:00,80.5,75.9,29.88,ESE,113,5.8,5.8,86,0.00,CLR,,0.00,WeatherDisplay:10.37,2013-07-13 03:44:00,
2013-07-12 22:50:00,80.6,76.0,29.88,South,176,5.8,5.8,86,0.00,CLR,,0.00,WeatherDisplay:10.37,2013-07-13 03:50:00,
2013-07-12 22:55:00,80.6,76.0,29.88,SSE,153,3.2,3.2,86,0.00,CLR,,0.00,WeatherDisplay:10.37,2013-07-13 03:55:00,
2013-07-12 23:00:00,80.7,76.1,29.88,SSE,147,6.9,6.9,86,0.00,CLR,,0.00,WeatherDisplay:10.37,2013-07-13 04:00:00,
2013-07-12 23:01:00,80.7,76.1,29.88,ESE,112,5.8,5.8,86,0.00,CLR,,0.00,WeatherDisplay:10.37,2013-07-13 04:01:00,
2013-07-12 23:02:00,80.7,76.1,29.88,SE,140,5.8,5.8,86,0.00,CLR,,0.00,WeatherDisplay:10.37,2013-07-13 04:02:00,
2013-07-12 23:07:00,80.7,76.1,29.89,SE,131,4.6,4.6,86,0.00,CLR,,0.00,WeatherDisplay:10.37,2013-07-13 04:07:00,
2013-07-12 23:12:00,80.5,75.9,29.89,SE,127,5.8,5.8,86,0.00,CLR,,0.00,WeatherDisplay:10.37,2013-07-13 04:12:00,
2013-07-12 23:17:00,80.4,76.2,29.89,South,169,4.6,4.6,87,0.00,CLR,,0.00,WeatherDisplay:10.37,2013-07-13 04:17:00,
2013-07-12 23:22:00,80.3,76.1,29.89,SE,127,3.5,3.5,87,0.00,CLR,,0.00,WeatherDisplay:10.37,2013-07-13 04:22:00,
2013-07-12 23:27:00,80.2,76.0,29.89,SSE,151,4.6,4.6,87,0.00,CLR,,0.00,WeatherDisplay:10.37,2013-07-13 04:27:00,
2013-07-12 23:32:00,80.2,76.0,29.89,ESE,105,5.8,5.8,87,0.00,CLR,,0.00,WeatherDisplay:10.37,2013-07-13 04:32:00,
2013-07-12 23:37:00,80.2,76.0,29.89,SE,144,4.6,4.6,87,0.00,CLR,,0.00,WeatherDisplay:10.37,2013-07-13 04:37:00,
2013-07-12 23:42:00,80.2,76.0,29.89,SSE,151,5.8,5.8,87,0.00,CLR,,0.00,WeatherDisplay:10.37,2013-07-13 04:42:00,
2013-07-12 23:47:00,80.2,76.0,29.89,SSE,154,4.6,4.6,87,0.00,CLR,,0.00,WeatherDisplay:10.37,2013-07-13 04:47:00,
2013-07-12 23:52:00,80.1,75.9,29.89,SSE,148,5.8,5.8,87,0.00,CLR,,0.00,WeatherDisplay:10.37,2013-07-13 04:52:00,
2013-07-12 23:57:00,80.1,75.5,29.89,SSE,150,5.8,5.8,86,0.00,CLR,,0.00,WeatherDisplay:10.37,2013-07-13 04:57:00,